[[{"header":{"parameterUnit":"m.s-1","parameterCategory":1,"la1":30.2991,"la2":30.254,"lo1":-89.0895,"lo2":-89.0444,"dy":0.0017,"dx":0.0017,"nx":28,"ny":28,"refTime":"2024-04-06T09:00:00:Z","depth":0,"parameterNumber":2,"parameterNumberName":"U-component_of_WINDS"},"data":[0,0,0,0,0,0,0,0,0,0,0,0,0,0,0,0,0,0,0,0,0,0,0,0,0,0,0,0,0,0,0,0,0,0,0,0,0,0,0,0,0,0,0,0,0,0,0,0,0,0,0,0,0,0,0,0,0,0,-3.555,-3.5549,0,-3.5519,-3.5519,-3.5518,-3.5432,-3.543,-3.5428,-3.5426,-3.5395,-3.5396,-3.5397,0,0,0,0,0,0,0,0,0,0,0,0,0,-3.5535,-3.5536,-3.555,-3.5549,-3.5549,-3.5519,-3.5519,-3.5518,-3.5432,-3.543,-3.5428,-3.5425,-3.5395,-3.5396,-3.5397,0,0,0,0,0,0,0,0,0,0,0,0,0,-3.5527,-3.5536,-3.555,-3.5502,-3.5498,-3.5519,-3.5519,-3.5518,-3.5433,-3.543,-3.5427,-3.5424,-3.5394,-3.5396,-3.5397,-3.5462,0,0,-3.5401,-3.5402,0,0,0,0,0,0,0,0,-3.5528,-3.5528,-3.551,-3.5506,-3.5501,-3.5476,-3.5502,-3.5499,-3.5433,-3.5457,-3.5426,-3.5423,-3.5424,-3.5423,-3.5424,-3.546,-3.5459,-3.5401,-3.5402,-3.5403,-3.5403,0,0,0,0,0,0,0,-3.5528,-3.5528,-3.5538,-3.551,-3.5504,-3.5483,-3.5479,-3.5501,-3.5457,-3.5455,-3.5449,-3.5446,-3.5421,-3.5422,-3.5422,-3.5459,-3.5401,-3.5403,-3.5403,-3.5404,-3.5549,-3.5552,0,0,0,0,0,0,-3.5535,-3.5529,-3.5538,-3.5537,-3.5507,-3.5486,-3.5481,-3.5487,-3.5457,-3.5449,-3.5449,-3.5442,-3.5421,-3.5421,-3.5421,-3.5494,-3.5403,-3.5404,-3.5405,-3.5546,-3.5549,-3.5553,0,0,0,0,0,0,-3.5536,-3.5537,-3.554,-3.5531,-3.553,-3.5489,-3.5497,-3.5488,-3.5489,-3.5452,-3.5444,-3.5458,-3.5419,-3.5419,-3.5453,-3.5492,-3.5405,-3.5406,-3.5542,-3.5547,-3.5551,-3.5642,0,0,0,0,0,0,-3.5535,-3.5538,-3.5561,-3.5533,-3.5531,-3.5572,-3.5499,-3.5489,-3.5491,-3.5483,-3.5458,-3.5451,-3.5417,-3.5451,-3.5454,-3.5492,-3.5407,-3.5538,-3.5544,-3.555,-3.5635,-3.5649,-3.5661,0,0,0,0,0,-3.5535,-3.5588,-3.5563,-3.5564,-3.5559,-3.5574,-3.5573,-3.5532,-3.5495,-3.5518,-3.5495,-3.5452,-3.5488,-3.5455,-3.5458,-3.5497,-3.5536,-3.5543,-3.5549,-3.5629,-3.5646,-3.5661,0,0,0,0,0,0,-3.5621,-3.5583,-3.5554,-3.5599,-3.5591,-3.5559,-3.5587,-3.5552,-3.5553,-3.5545,-3.5495,-3.549,-3.5531,-3.5518,-3.5482,-3.5559,-3.5505,-3.5513,-3.5565,-3.5581,-3.5594,-3.5594,-3.5408,0,0,0,0,0,-3.5645,-3.566,-3.5626,-3.5669,-3.5666,-3.5628,-3.5633,-3.5603,-3.5592,-3.5587,-3.5566,-3.5558,-3.5567,-3.5574,-3.558,-3.5635,-3.5628,-3.5663,-3.5676,-3.5687,-3.5693,-3.5721,-3.5736,-3.5575,-3.5575,-3.5575,0,0,-3.5694,-3.5676,-3.5688,-3.5686,-3.5675,-3.5692,-3.5625,-3.5645,-3.5657,-3.559,-3.562,-3.5606,-3.5593,-3.5637,-3.5656,-3.5627,-3.5737,-3.5696,-3.5705,-3.5705,-3.573,-3.5745,-3.5759,-3.558,-3.5579,-3.5578,0,0,-3.5793,-3.5781,-3.5815,-3.5807,-3.5792,-3.5767,-3.5776,-3.5751,-3.5739,-3.5769,-3.5719,-3.5734,-3.5751,-3.5744,-3.5742,-3.5843,-3.5803,-3.5847,-3.5913,-3.5941,-3.5953,-3.5964,-3.5999,-3.6012,-3.5854,-3.5854,-3.5855,0,-3.5855,-3.5878,-3.5837,-3.5861,-3.5861,-3.5804,-3.5838,-3.5833,-3.5822,-3.5824,-3.5793,-3.5814,-3.5802,-3.5844,-3.5869,-3.587,-3.5878,-3.5847,-3.5955,-3.5966,-3.5975,-3.6007,-3.6021,-3.586,-3.5859,-3.5859,-3.5858,0,-3.5956,-3.5973,-3.6003,-3.5994,-3.5999,-3.6028,-3.5992,-3.6002,-3.5973,-3.5952,-3.5984,-3.5968,-3.597,-3.5979,-3.5951,-3.6018,-3.6001,-3.5964,-3.5907,-3.5996,-3.6026,-3.6038,-3.5867,-3.5865,-3.5864,-3.5862,0,0,-3.6102,-3.6073,-3.6084,-3.608,-3.6062,-3.6075,-3.6103,-3.6106,-3.6115,-3.6112,-3.6133,-3.6151,-3.6118,-3.6116,-3.6088,-3.6113,-3.6193,-3.6072,-3.6071,-3.6093,-3.6265,-3.629,-3.6305,-3.6168,-3.617,-3.6172,-3.6265,0,-3.6193,-3.6237,-3.6203,-3.6254,-3.6269,-3.6218,-3.6242,-3.6235,-3.6217,-3.6228,-3.6209,-3.6222,-3.6177,-3.6176,-3.6199,-3.6178,-3.6226,-3.6171,-3.6187,-3.6188,-3.6188,-3.6321,-3.6348,-3.6436,-3.6277,-3.6279,-3.628,0,-3.6303,-3.6305,-3.6358,-3.6339,-3.6344,-3.6366,-3.6367,-3.6379,-3.6371,-3.6356,-3.6357,-3.6323,-3.635,-3.6298,-3.6335,-3.6298,-3.6304,-3.6295,-3.6298,-3.6294,-3.6236,-3.6319,-3.6463,-3.6475,-3.6298,-3.6297,-3.6295,0,-3.6402,-3.6418,-3.6452,-3.645,-3.6429,-3.6446,-3.6439,-3.6427,-3.6432,-3.6434,-3.6437,-3.6442,-3.6444,-3.645,-3.6418,-3.6384,-3.6459,-3.6405,-3.6447,-3.6447,-3.6461,-3.646,-3.6605,-3.647,-3.647,-3.647,-3.647,0,-3.6505,-3.6539,-3.6496,-3.6516,-3.6554,-3.6515,-3.6553,-3.654,-3.6532,-3.6549,-3.6506,-3.6523,-3.6482,-3.6496,-3.6472,-3.6505,-3.6507,-3.6496,-3.6488,-3.6498,-3.6499,-3.6498,-3.649,-3.6473,-3.6473,-3.6472,-3.6471,0,-3.662,-3.6592,-3.6625,-3.6604,-3.66,-3.6628,-3.661,-3.6628,-3.661,-3.6633,-3.6636,-3.6606,-3.662,-3.6591,-3.6601,-3.6585,-3.6632,-3.6616,-3.6634,-3.6628,-3.6671,-3.6667,-3.6818,-3.6835,-3.6692,-3.6694,-3.6695,0,-3.6685,-3.671,-3.6693,-3.6701,-3.6696,-3.6711,-3.6716,-3.6682,-3.6689,-3.6683,-3.6702,-3.6713,-3.6719,-3.6745,-3.6724,-3.6732,-3.6715,-3.6768,-3.6715,-3.6724,-3.6713,-3.671,-3.6712,-3.6777,-3.6779,-3.678,-3.6781,0,-3.6805,-3.6791,-3.68,-3.6805,-3.6813,-3.6816,-3.6815,-3.6825,-3.6788,-3.6799,-3.6813,-3.6819,-3.683,-3.6841,-3.6845,-3.6837,-3.6803,-3.6799,-3.6808,-3.6816,-3.6825,-3.6819,-3.666,-3.6794,-3.6793,-3.6792,-3.6791,-3.6791,-3.6895,-3.6915,-3.6906,-3.6918,-3.6915,-3.6916,-3.6933,-3.6917,-3.6928,-3.6935,-3.6914,-3.6934,-3.6927,-3.6929,-3.6925,-3.694,-3.6916,-3.6931,-3.6934,-3.6937,-3.6943,-3.6826,-3.6941,-3.6941,-3.694,-3.694,-3.694,0,-3.701,-3.7003,-3.7015,-3.7016,-3.7026,-3.6996,-3.6995,-3.7005,-3.7022,-3.7019,-3.7027,-3.7045,-3.7056,-3.7039,-3.7047,-3.7063,-3.7047,-3.7066,-3.7062,-3.7061,-3.6965,-3.6954,-3.7078,-3.7078,-3.7078,-3.7078,-3.7078,-3.7078,-3.707,-3.7103,-3.7089,-3.712,-3.7112,-3.7131,-3.7133,-3.7134,-3.7132,-3.7153,-3.7162,-3.7152,-3.7143,-3.7151,-3.7161,-3.7156,-3.716,-3.7183,-3.7172,-3.7082,-3.7068,-3.7055,-3.7045,-3.7185,-3.7185,-3.7267,-3.7268,-3.7268]},{"header":{"parameterUnit":"m.s-1","parameterCategory":1,"la1":30.2991,"la2":30.254,"lo1":-89.0895,"lo2":-89.0444,"dy":0.0017,"dx":0.0017,"nx":28,"ny":28,"refTime":"2024-04-06T09:00:00:Z","depth":0,"parameterNumber":3,"parameterNumberName":"V-component_of_WINDS"},"data":[0,0,0,0,0,0,0,0,0,0,0,0,0,0,0,0,0,0,0,0,0,0,0,0,0,0,0,0,0,0,0,0,0,0,0,0,0,0,0,0,0,0,0,0,0,0,0,0,0,0,0,0,0,0,0,0,0,0,3.4395,3.4395,0,3.4425,3.4426,3.4426,3.4469,3.447,3.447,3.4471,3.4498,3.4498,3.4498,0,0,0,0,0,0,0,0,0,0,0,0,0,3.437,3.437,3.4395,3.4395,3.4395,3.4425,3.4426,3.4426,3.4469,3.447,3.4471,3.4471,3.4498,3.4498,3.4498,0,0,0,0,0,0,0,0,0,0,0,0,0,3.4388,3.437,3.4395,3.442,3.4423,3.4425,3.4426,3.4426,3.4469,3.447,3.4471,3.4472,3.4498,3.4498,3.4498,3.4476,0,0,3.4498,3.4498,0,0,0,0,0,0,0,0,3.4387,3.4389,3.4416,3.4419,3.4422,3.4445,3.4427,3.4443,3.4468,3.4451,3.4471,3.4472,3.4479,3.4481,3.4484,3.4478,3.4479,3.4498,3.4498,3.4498,3.4498,0,0,0,0,0,0,0,3.4386,3.4388,3.4407,3.4417,3.442,3.443,3.4433,3.443,3.4458,3.4453,3.4456,3.4459,3.4481,3.4484,3.4485,3.4479,3.4498,3.4498,3.4498,3.4498,3.4458,3.4457,0,0,0,0,0,0,3.4381,3.4387,3.4406,3.4408,3.4407,3.4429,3.4433,3.4436,3.4459,3.4463,3.4458,3.4461,3.4483,3.4485,3.4486,3.4463,3.4498,3.4498,3.4498,3.4459,3.4458,3.4456,0,0,0,0,0,0,3.4381,3.4383,3.4405,3.4398,3.4402,3.4428,3.4431,3.4436,3.4439,3.4463,3.4468,3.4456,3.4484,3.4486,3.4479,3.4464,3.4498,3.4499,3.446,3.4458,3.4457,3.4416,0,0,0,0,0,0,3.438,3.4382,3.4375,3.4398,3.4402,3.4398,3.443,3.4436,3.444,3.4444,3.4462,3.4467,3.4485,3.4479,3.4479,3.4465,3.4499,3.4462,3.4459,3.4457,3.4419,3.4413,3.4408,0,0,0,0,0,3.4379,3.4361,3.4374,3.4376,3.4393,3.4397,3.4399,3.4422,3.4438,3.4431,3.4446,3.4466,3.4466,3.4478,3.4478,3.4464,3.4463,3.446,3.4458,3.4421,3.4414,3.4408,0,0,0,0,0,0,3.4333,3.4364,3.4379,3.4368,3.438,3.4404,3.4395,3.4414,3.442,3.4423,3.445,3.4454,3.4444,3.4453,3.4466,3.4445,3.4467,3.4465,3.4439,3.4433,3.4428,3.4426,3.4499,0,0,0,0,0,3.4322,3.4324,3.435,3.4338,3.4343,3.4368,3.437,3.4387,3.44,3.4404,3.4419,3.4429,3.4432,3.4433,3.4436,3.442,3.4425,3.4411,3.4406,3.4401,3.4399,3.4392,3.4386,3.4448,3.4448,3.4448,0,0,3.4298,3.4316,3.4314,3.4329,3.434,3.434,3.4372,3.437,3.437,3.4404,3.4399,3.441,3.4423,3.4412,3.4408,3.4419,3.4383,3.4398,3.4394,3.4394,3.4389,3.4383,3.4378,3.4446,3.4447,3.4447,0,0,3.4256,3.4269,3.4261,3.4272,3.4289,3.4306,3.4304,3.4326,3.4336,3.4331,3.4357,3.4357,3.4361,3.437,3.4374,3.4337,3.4356,3.4338,3.431,3.4303,3.4298,3.4294,3.4281,3.4276,3.4335,3.4335,3.4335,0,3.4224,3.4227,3.4254,3.4252,3.4257,3.429,3.4282,3.429,3.4307,3.431,3.4323,3.433,3.4341,3.4332,3.4324,3.4326,3.4325,3.4335,3.4297,3.4293,3.429,3.4278,3.4273,3.4333,3.4333,3.4333,3.4333,0,3.4188,3.4189,3.418,3.4198,3.4202,3.4197,3.4223,3.4224,3.4241,3.4256,3.4252,3.4267,3.4275,3.4274,3.4289,3.4268,3.4275,3.4292,3.4315,3.4281,3.427,3.4266,3.4329,3.433,3.4331,3.4331,0,0,3.4116,3.415,3.4147,3.4156,3.4178,3.4179,3.4175,3.4184,3.4185,3.4195,3.4193,3.4196,3.4213,3.4218,3.4235,3.4229,3.42,3.4248,3.4248,3.4239,3.4178,3.4165,3.416,3.4213,3.4212,3.4211,3.4177,0,3.4078,3.4075,3.41,3.409,3.4092,3.4123,3.412,3.4133,3.4147,3.415,3.4166,3.4168,3.419,3.4193,3.4189,3.4205,3.4188,3.4207,3.421,3.421,3.4206,3.4154,3.414,3.4107,3.4173,3.4173,3.4172,0,3.4033,3.4044,3.4034,3.4059,3.406,3.4057,3.4068,3.4071,3.4086,3.4097,3.4104,3.4125,3.4122,3.4144,3.4141,3.4154,3.4156,3.4164,3.4163,3.4164,3.4189,3.4154,3.4097,3.4093,3.4166,3.4166,3.4167,0,3.3983,3.3995,3.3991,3.3998,3.4025,3.4022,3.4033,3.405,3.4054,3.4064,3.4067,3.4075,3.408,3.4085,3.4107,3.4122,3.4102,3.4126,3.411,3.411,3.4105,3.4105,3.4048,3.4106,3.4106,3.4106,3.4106,0,3.3939,3.3932,3.3969,3.3967,3.396,3.3989,3.3981,3.3995,3.4009,3.401,3.4037,3.4036,3.4065,3.4068,3.4085,3.408,3.4082,3.409,3.4095,3.4088,3.4087,3.409,3.4093,3.4105,3.4105,3.4105,3.4105,0,3.3881,3.3906,3.3904,3.3932,3.3938,3.3932,3.3955,3.3953,3.397,3.3971,3.3972,3.3998,3.4003,3.4026,3.4035,3.4047,3.4036,3.4045,3.4031,3.4034,3.4018,3.402,3.3962,3.3956,3.4017,3.4016,3.4016,0,3.3851,3.3847,3.3874,3.3878,3.3888,3.3892,3.3898,3.3926,3.393,3.3948,3.3944,3.3952,3.3959,3.3965,3.3984,3.3992,3.4001,3.398,3.4002,3.3996,3.4002,3.4002,3.4002,3.3976,3.3975,3.3974,3.3974,0,3.3796,3.3809,3.3816,3.3829,3.3835,3.3845,3.3857,3.3858,3.3889,3.3892,3.3899,3.3904,3.3915,3.3922,3.3933,3.3944,3.3964,3.3967,3.3964,3.3957,3.3949,3.3954,3.4019,3.3968,3.3968,3.3969,3.3969,3.3969,3.3752,3.375,3.377,3.3777,3.379,3.3801,3.3801,3.3819,3.3825,3.3838,3.3853,3.3858,3.3874,3.3891,3.39,3.3903,3.3915,3.391,3.3909,3.3907,3.3904,3.3949,3.3905,3.3905,3.3906,3.3906,3.3906,0,3.3698,3.3713,3.372,3.3737,3.3743,3.3763,3.3778,3.3781,3.3785,3.3799,3.3807,3.3814,3.3821,3.3842,3.3851,3.3849,3.3859,3.3851,3.3851,3.3853,3.3893,3.3895,3.3843,3.3843,3.3843,3.3843,3.3843,3.3843,3.3671,3.367,3.3685,3.369,3.3704,3.371,3.3717,3.3727,3.3739,3.3746,3.3753,3.3767,3.3784,3.3795,3.3802,3.3808,3.381,3.3799,3.3808,3.3844,3.385,3.3856,3.3858,3.3799,3.3799,3.3768,3.3767,3.3767]}]]